| time (UTC) | temp F | wind direction | speed knots | gust knots | rain 1hr in | rain 24hr in | rain mn in | humidity % | barometer mb |
| 20260505041535 | 44 | 262 | 7.8 | 0.0 | 0.00 | 0.21 | 0.00 | 83 | 1008.0 |
| 20260505041032 | 44 | 231 | 5.2 | 0.0 | 0.00 | 0.21 | 0.00 | 83 | 1007.7 |
| 20260505040530 | 44 | 231 | 3.5 | 0.0 | 0.00 | 0.21 | 0.00 | 82 | 1007.7 |
| 20260505035528 | 44 | 239 | 4.3 | 0.0 | 0.00 | 0.21 | 0.00 | 82 | 1007.7 |
| 20260505034525 | 44 | 96 | 5.2 | 0.0 | 0.00 | 0.21 | 0.00 | 81 | 1007.7 |
| 20260505034023 | 44 | 253 | 7.8 | 0.0 | 0.00 | 0.21 | 0.00 | 81 | 1007.7 |
| 20260505033021 | 45 | 322 | 3.5 | 0.0 | 0.00 | 0.21 | 0.00 | 80 | 1007.4 |
| 20260505032519 | 45 | 257 | 4.3 | 0.0 | 0.00 | 0.21 | 0.00 | 80 | 1007.4 |
| 20260505032018 | 44 | 252 | 6.1 | 0.0 | 0.00 | 0.21 | 0.00 | 80 | 1007.4 |
| 20260505030013 | 44 | 194 | 6.1 | 0.0 | 0.00 | 0.21 | 0.00 | 81 | 1006.7 |
| 20260505025010 | 45 | 257 | 4.3 | 0.0 | 0.00 | 0.21 | 0.00 | 80 | 1006.7 |
| 20260505024509 | 45 | 214 | 5.2 | 0.0 | 0.00 | 0.21 | 0.00 | 80 | 1006.7 |
| 20260505024008 | 45 | 244 | 5.2 | 0.0 | 0.00 | 0.21 | 0.00 | 80 | 1006.7 |
| 20260505023506 | 45 | 219 | 5.2 | 0.0 | 0.00 | 0.21 | 0.00 | 79 | 1006.7 |
| 20260505023004 | 45 | 169 | 2.6 | 0.0 | 0.00 | 0.21 | 0.00 | 79 | 1006.7 |
| 20260505022503 | 45 | 252 | 1.7 | 0.0 | 0.00 | 0.21 | 0.00 | 78 | 1006.7 |
| 20260505022003 | 45 | 306 | 3.5 | 0.0 | 0.00 | 0.21 | 0.00 | 78 | 1006.3 |
| 20260505021501 | 46 | 208 | 2.6 | 0.0 | 0.00 | 0.22 | 0.00 | 78 | 1006.3 |
| 20260505015557 | 46 | 212 | 2.6 | 0.0 | 0.00 | 0.23 | 0.00 | 77 | 1006.3 |
| 20260505015056 | 46 | 204 | 6.1 | 0.0 | 0.00 | 0.23 | 0.00 | 77 | 1006.3 |
| 20260505014051 | 46 | 270 | 6.1 | 0.0 | 0.00 | 0.23 | 0.00 | 76 | 1006.0 |
| 20260505013548 | 46 | 280 | 5.2 | 0.0 | 0.00 | 0.24 | 0.00 | 76 | 1006.0 |
| 20260505013047 | 46 | 228 | 2.6 | 0.0 | 0.00 | 0.24 | 0.00 | 76 | 1006.0 |
| 20260505012545 | 46 | 217 | 2.6 | 0.0 | 0.00 | 0.24 | 0.00 | 77 | 1006.0 |
| 20260505012044 | 46 | 240 | 5.2 | 0.0 | 0.00 | 0.25 | 0.00 | 77 | 1006.0 |
| 20260505011541 | 46 | 240 | 9.6 | 0.0 | 0.00 | 0.25 | 0.00 | 77 | 1006.0 |
| 20260505011038 | 46 | 236 | 3.5 | 0.0 | 0.00 | 0.25 | 0.00 | 77 | 1006.0 |
| 20260505010031 | 47 | 214 | 2.6 | 0.0 | 0.00 | 0.25 | 0.00 | 76 | 1005.7 |
| 20260505005530 | 47 | 250 | 1.7 | 0.0 | 0.00 | 0.25 | 0.00 | 75 | 1005.7 |
| 20260505005028 | 47 | 236 | 5.2 | 0.0 | 0.00 | 0.25 | 0.00 | 75 | 1005.7 |
| 20260505004525 | 47 | 178 | 7.8 | 0.0 | 0.00 | 0.25 | 0.00 | 75 | 1005.7 |
| 20260505004024 | 48 | 259 | 6.1 | 0.0 | 0.00 | 0.25 | 0.00 | 74 | 1005.7 |
| 20260505003020 | 48 | 235 | 10.4 | 0.0 | 0.00 | 0.26 | 0.00 | 73 | 1005.3 |
| 20260505002517 | 48 | 266 | 4.3 | 0.0 | 0.00 | 0.26 | 0.00 | 73 | 1005.3 |
| 20260505002014 | 48 | 198 | 4.3 | 0.0 | 0.00 | 0.27 | 0.00 | 73 | 1005.3 |
| 20260505001514 | 49 | 252 | 6.1 | 0.0 | 0.00 | 0.27 | 0.00 | 73 | 1005.0 |
| 20260505001011 | 49 | 214 | 5.2 | 0.0 | 0.00 | 0.27 | 0.00 | 72 | 1005.0 |
| 20260505000508 | 49 | 230 | 6.1 | 0.0 | 0.00 | 0.28 | 0.00 | 71 | 1005.0 |
| 20260505000006 | 49 | 248 | 2.6 | 0.0 | 0.00 | 0.28 | 0.00 | 71 | 1005.0 |
| 20260504235504 | 49 | 247 | 6.1 | 0.0 | 0.00 | 0.28 | 0.00 | 71 | 1005.0 |
| 20260504235002 | 50 | 331 | 5.2 | 0.0 | 0.00 | 0.29 | 0.00 | 70 | 1004.6 |
| 20260504234057 | 50 | 270 | 6.1 | 0.0 | 0.00 | 0.29 | 0.00 | 70 | 1004.6 |
| 20260504233054 | 50 | 205 | 7.8 | 0.0 | 0.00 | 0.30 | 0.00 | 69 | 1004.3 |
| 20260504232052 | 51 | 233 | 7.8 | 0.0 | 0.00 | 0.31 | 0.00 | 68 | 1004.3 |
| 20260504231048 | 51 | 272 | 8.7 | 0.0 | 0.00 | 0.32 | 0.00 | 66 | 1004.3 |
| 20260504230548 | 51 | 296 | 11.3 | 0.0 | 0.00 | 0.32 | 0.00 | 66 | 1003.9 |
| 20260504230046 | 52 | 242 | 7.0 | 0.0 | 0.00 | 0.33 | 0.00 | 65 | 1003.9 |
| 20260504225545 | 52 | 283 | 14.8 | 0.0 | 0.00 | 0.33 | 0.00 | 64 | 1003.9 |
| 20260504225044 | 52 | 228 | 7.0 | 0.0 | 0.00 | 0.33 | 0.00 | 63 | 1003.9 |
| 20260504224542 | 53 | 260 | 7.0 | 0.0 | 0.00 | 0.33 | 0.00 | 62 | 1003.9 |
| 20260504224042 | 53 | 222 | 13.0 | 0.0 | 0.00 | 0.34 | 0.00 | 61 | 1003.9 |
| 20260504223541 | 53 | 269 | 16.5 | 0.0 | 0.00 | 0.36 | 0.00 | 60 | 1003.9 |
| 20260504223039 | 54 | 227 | 11.3 | 0.0 | 0.00 | 0.38 | 0.00 | 59 | 1003.9 |
| 20260504222538 | 54 | 263 | 3.5 | 0.0 | 0.00 | 0.38 | 0.00 | 59 | 1003.6 |
| 20260504222034 | 53 | 297 | 9.6 | 0.0 | 0.00 | 0.40 | 0.00 | 59 | 1003.6 |
| 20260504221532 | 53 | 323 | 8.7 | 0.0 | 0.00 | 0.42 | 0.00 | 59 | 1003.6 |
| 20260504221030 | 52 | 264 | 7.8 | 0.0 | 0.00 | 0.42 | 0.00 | 58 | 1003.6 |
| 20260504220529 | 53 | 262 | 6.1 | 0.0 | 0.00 | 0.44 | 0.00 | 57 | 1003.6 |
| 20260504220026 | 53 | 249 | 12.2 | 0.0 | 0.00 | 0.44 | 0.00 | 55 | 1003.6 |
| 20260504215524 | 53 | 273 | 10.4 | 0.0 | 0.00 | 0.45 | 0.00 | 52 | 1003.6 |
| 20260504215023 | 53 | 223 | 12.2 | 0.0 | 0.00 | 0.47 | 0.00 | 49 | 1003.6 |
| 20260504214522 | 53 | 243 | 7.0 | 0.0 | 0.00 | 0.50 | 0.00 | 46 | 1003.6 |
| 20260504214020 | 54 | 218 | 7.8 | 0.0 | 0.00 | 0.52 | 0.00 | 44 | 1003.6 |
| 20260504213518 | 54 | 209 | 11.3 | 0.0 | 0.00 | 0.54 | 0.00 | 41 | 1003.6 |
| 20260504212514 | 55 | 256 | 7.0 | 0.0 | 0.00 | 0.55 | 0.00 | 36 | 1003.3 |
| 20260504212013 | 55 | 248 | 13.9 | 0.0 | 0.00 | 0.56 | 0.00 | 36 | 1003.3 |
| 20260504211511 | 55 | 252 | 7.8 | 0.0 | 0.00 | 0.57 | 0.00 | 36 | 1003.3 |
| 20260504211009 | 55 | 226 | 13.0 | 0.0 | 0.00 | 0.57 | 0.00 | 33 | 1003.3 |
| 20260504210508 | 56 | 241 | 5.2 | 0.0 | 0.00 | 0.58 | 0.00 | 35 | 1003.3 |
| 20260504210005 | 56 | 235 | 19.1 | 0.0 | 0.00 | 0.58 | 0.00 | 35 | 1003.3 |
| 20260504205503 | 57 | 278 | 10.4 | 0.0 | 0.00 | 0.58 | 0.00 | 35 | 1003.3 |
| 20260504205001 | 57 | 222 | 13.0 | 0.0 | 0.00 | 0.59 | 0.00 | 36 | 1003.3 |
| 20260504204059 | 56 | 257 | 13.0 | 0.0 | 0.00 | 0.60 | 0.00 | 38 | 1002.9 |
| 20260504203557 | 56 | 196 | 12.2 | 0.0 | 0.00 | 0.60 | 0.00 | 39 | 1002.9 |
| 20260504203055 | 56 | 227 | 13.0 | 0.0 | 0.00 | 0.60 | 0.00 | 37 | 1002.9 |
| 20260504202554 | 57 | 251 | 5.2 | 0.0 | 0.00 | 0.60 | 0.00 | 40 | 1002.9 |
| 20260504201548 | 57 | 276 | 13.9 | 0.0 | 0.00 | 0.62 | 0.00 | 39 | 1002.2 |
| 20260504201047 | 57 | 255 | 12.2 | 0.0 | 0.00 | 0.63 | 0.00 | 39 | 1002.2 |
| 20260504195037 | 56 | 191 | 7.8 | 0.0 | 0.00 | 0.66 | 0.00 | 41 | 1001.9 |
| 20260504194534 | 56 | 259 | 14.8 | 0.0 | 0.00 | 0.66 | 0.00 | 43 | 1001.9 |
| 20260504194030 | 56 | 262 | 10.4 | 0.0 | 0.00 | 0.68 | 0.00 | 41 | 1001.9 |
| 20260504193528 | 56 | 267 | 10.4 | 0.0 | 0.00 | 0.68 | 0.00 | 43 | 1001.9 |
| 20260504193026 | 56 | 233 | 12.2 | 0.0 | 0.00 | 0.69 | 0.00 | 41 | 1001.9 |
| 20260504192525 | 56 | 275 | 4.3 | 0.0 | 0.00 | 0.70 | 0.00 | 43 | 1001.9 |
| 20260504192022 | 56 | 282 | 7.0 | 0.0 | 0.00 | 0.70 | 0.00 | 43 | 1001.9 |
| 20260504191520 | 56 | 296 | 7.8 | 0.0 | 0.00 | 0.71 | 0.00 | 45 | 1001.9 |
| 20260504190516 | 56 | 287 | 13.0 | 0.0 | 0.00 | 0.73 | 0.00 | 44 | 1001.9 |
| 20260504190015 | 55 | 295 | 10.4 | 0.0 | 0.00 | 0.74 | 0.00 | 45 | 1001.9 |
| 20260504185010 | 54 | 246 | 11.3 | 0.0 | 0.00 | 0.75 | 0.00 | 47 | 1001.9 |
| 20260504184508 | 55 | 245 | 11.3 | 0.0 | 0.00 | 0.76 | 0.00 | 47 | 1001.9 |
| 20260504184006 | 54 | 271 | 10.4 | 0.0 | 0.00 | 0.77 | 0.00 | 48 | 1001.9 |
| 20260504183002 | 54 | 284 | 5.2 | 0.0 | 0.00 | 0.78 | 0.00 | 52 | 1001.9 |
| 20260504182059 | 53 | 246 | 12.2 | 0.0 | 0.00 | 0.80 | 0.00 | 53 | 1001.9 |
| 20260504181054 | 53 | 281 | 9.6 | 0.0 | 0.00 | 0.80 | 0.00 | 54 | 1001.9 |
| 20260504180050 | 52 | 238 | 7.8 | 0.0 | 0.00 | 0.81 | 0.00 | 55 | 1001.9 |
| 20260504175549 | 52 | 241 | 13.9 | 0.0 | 0.00 | 0.81 | 0.00 | 56 | 1001.9 |
| 20260504175044 | 52 | 220 | 7.0 | 0.0 | 0.00 | 0.81 | 0.00 | 58 | 1001.6 |
| 20260504174543 | 52 | 270 | 13.0 | 0.0 | 0.00 | 0.81 | 0.00 | 57 | 1001.9 |
| 20260504173541 | 52 | 285 | 15.6 | 0.0 | 0.00 | 0.81 | 0.00 | 60 | 1001.6 |
| 20260504173038 | 52 | 277 | 7.8 | 0.0 | 0.00 | 0.81 | 0.00 | 62 | 1001.6 |
| 20260504172535 | 51 | 323 | 7.8 | 0.0 | 0.00 | 0.81 | 0.00 | 62 | 1001.6 |
| 20260504172031 | 51 | 224 | 11.3 | 0.0 | 0.00 | 0.81 | 0.00 | 62 | 1001.6 |
| 20260504171529 | 52 | 244 | 7.8 | 0.0 | 0.00 | 0.81 | 0.00 | 62 | 1001.2 |
| 20260504171026 | 53 | 285 | 11.3 | 0.0 | 0.00 | 0.81 | 0.00 | 61 | 1001.2 |
| 20260504151040 | 45 | 276 | 17.4 | 0.0 | 0.00 | 0.81 | 0.00 | 87 | 1000.5 |
| 20260504150539 | 44 | 214 | 6.1 | 0.0 | 0.00 | 0.81 | 0.00 | 88 | 1000.5 |
| 20260504141020 | 42 | 255 | 8.7 | 0.0 | 0.00 | 0.81 | 0.00 | 91 | 999.5 |
| 20260504140519 | 42 | 272 | 6.1 | 0.0 | 0.00 | 0.81 | 0.00 | 92 | 999.5 |
| 20260504130503 | 42 | 213 | 13.9 | 0.0 | 0.00 | 0.81 | 0.00 | 96 | 998.5 |
| 20260504100513 | 37 | 292 | 13.0 | 0.0 | 0.02 | 0.79 | 0.00 | 99 | 993.7 |
| 20260504081042 | 34 | 248 | 12.2 | 0.0 | 0.02 | 0.75 | 0.00 | 10 | 990.0 |
| 20260504080541 | 34 | 265 | 14.8 | 0.0 | 0.12 | 0.75 | 0.00 | 10 | 989.6 |
| 20260504050548 | 36 | 288 | 12.2 | 0.0 | 0.00 | 0.60 | 0.00 | 10 | 983.1 |
| 20260504045545 | 36 | 327 | 13.9 | 0.0 | 0.00 | 0.60 | 0.00 | 10 | 982.5 |
| 20260504044542 | 36 | 308 | 13.0 | 0.0 | 0.00 | 0.60 | 0.00 | 10 | 982.5 |
| 20260504044040 | 36 | 336 | 14.8 | 0.0 | 0.00 | 0.60 | 0.00 | 10 | 982.1 |
| 20260504043538 | 36 | 275 | 17.4 | 0.0 | 0.00 | 0.60 | 0.00 | 10 | 982.1 |
| 20260504043036 | 36 | 317 | 7.0 | 0.0 | 0.00 | 0.60 | 0.00 | 10 | 981.8 |
| 20260504042535 | 36 | 295 | 12.2 | 0.0 | 0.00 | 0.60 | 0.00 | 10 | 981.8 |
| 20260504042030 | 37 | 317 | 12.2 | 0.0 | 0.00 | 0.60 | 0.00 | 10 | 981.4 |